Time,TemperatureF,DewpointF,PressureIn,WindDirection,WindDirectionDegrees,WindSpeedMPH,WindSpeedGustMPH,Humidity,HourlyPrecipIn,Conditions,Clouds,dailyrainin,SoftwareType,DateUTC
2013-04-10 00:03:00,70.0,-99.9,30.07,ESE,115,20.0,23.0,-999,-99.99,,,-99.99,,2013-04-10 05:03:00,
2013-04-10 00:13:00,70.0,-99.9,30.06,ESE,115,19.0,23.0,-999,-99.99,,,-99.99,,2013-04-10 05:13:00,
2013-04-10 00:23:00,70.0,-99.9,30.05,ESE,113,21.0,24.0,-999,-99.99,,,-99.99,,2013-04-10 05:23:00,
2013-04-10 00:33:00,70.0,-99.9,30.04,ESE,116,21.0,23.0,-999,-99.99,,,-99.99,,2013-04-10 05:33:00,
2013-04-10 00:43:00,70.0,-99.9,30.04,ESE,119,20.0,23.0,-999,-99.99,,,-99.99,,2013-04-10 05:43:00,
2013-04-10 00:53:00,71.0,-99.9,30.04,ESE,122,19.0,20.0,-999,-99.99,,,-99.99,,2013-04-10 05:53:00,
2013-04-10 01:03:00,71.0,-99.9,30.04,ESE,122,19.0,20.0,-999,-99.99,,,-99.99,,2013-04-10 06:03:00,
2013-04-10 01:12:00,71.0,-99.9,30.04,ESE,122,18.0,20.0,-999,-99.99,,,-99.99,,2013-04-10 06:12:00,
2013-04-10 01:22:00,71.0,-99.9,30.03,ESE,120,18.0,20.0,-999,-99.99,,,-99.99,,2013-04-10 06:22:00,
2013-04-10 01:32:00,71.0,-99.9,30.03,ESE,122,19.0,21.0,-999,-99.99,,,-99.99,,2013-04-10 06:32:00,
2013-04-10 01:43:00,70.0,-99.9,30.02,ESE,122,18.0,21.0,-999,-99.99,,,-99.99,,2013-04-10 06:43:00,
2013-04-10 01:52:00,70.0,-99.9,30.02,ESE,122,18.0,21.0,-999,-99.99,,,-99.99,,2013-04-10 06:52:00,
2013-04-10 02:02:00,70.0,-99.9,30.02,ESE,119,17.0,20.0,-999,-99.99,,,-99.99,,2013-04-10 07:02:00,
2013-04-10 02:12:00,70.0,-99.9,30.02,ESE,119,17.0,20.0,-999,-99.99,,,-99.99,,2013-04-10 07:12:00,
2013-04-10 02:23:00,70.0,-99.9,30.01,ESE,118,18.0,20.0,-999,-99.99,,,-99.99,,2013-04-10 07:23:00,
2013-04-10 02:33:00,70.0,-99.9,30.00,ESE,116,17.0,20.0,-999,-99.99,,,-99.99,,2013-04-10 07:33:00,
2013-04-10 02:43:00,70.0,-99.9,30.00,ESE,116,17.0,20.0,-999,-99.99,,,-99.99,,2013-04-10 07:43:00,
2013-04-10 02:52:00,70.0,-99.9,30.00,ESE,115,18.0,21.0,-999,-99.99,,,-99.99,,2013-04-10 07:52:00,
2013-04-10 03:02:00,70.0,-99.9,29.99,ESE,118,18.0,21.0,-999,-99.99,,,-99.99,,2013-04-10 08:02:00,
2013-04-10 03:12:00,70.0,-99.9,29.99,ESE,119,18.0,21.0,-999,-99.99,,,-99.99,,2013-04-10 08:12:00,
2013-04-10 03:22:00,70.0,-99.9,29.99,ESE,116,17.0,20.0,-999,-99.99,,,-99.99,,2013-04-10 08:22:00,
2013-04-10 03:32:00,70.0,-99.9,29.99,ESE,119,17.0,19.0,-999,-99.99,,,-99.99,,2013-04-10 08:32:00,
2013-04-10 03:43:00,70.0,-99.9,29.99,ESE,123,17.0,19.0,-999,-99.99,,,-99.99,,2013-04-10 08:43:00,
2013-04-10 03:52:00,70.0,-99.9,29.98,ESE,118,17.0,19.0,-999,-99.99,,,-99.99,,2013-04-10 08:52:00,
2013-04-10 04:02:00,70.0,-99.9,29.98,ESE,121,15.0,18.0,-999,-99.99,,,-99.99,,2013-04-10 09:02:00,
2013-04-10 04:12:00,70.0,-99.9,29.99,SE,124,16.0,18.0,-999,-99.99,,,-99.99,,2013-04-10 09:12:00,
2013-04-10 04:23:00,70.0,-99.9,29.99,SE,126,15.0,17.0,-999,-99.99,,,-99.99,,2013-04-10 09:23:00,
2013-04-10 04:33:00,70.0,-99.9,29.99,ESE,123,16.0,18.0,-999,-99.99,,,-99.99,,2013-04-10 09:33:00,
2013-04-10 04:43:00,70.0,-99.9,29.99,ESE,123,16.0,18.0,-999,-99.99,,,-99.99,,2013-04-10 09:43:00,
2013-04-10 04:53:00,70.0,-99.9,29.99,ESE,118,15.0,17.0,-999,-99.99,,,-99.99,,2013-04-10 09:53:00,
2013-04-10 05:03:00,70.0,-99.9,29.99,ESE,117,16.0,18.0,-999,-99.99,,,-99.99,,2013-04-10 10:03:00,
2013-04-10 05:13:00,70.0,-99.9,29.99,ESE,115,16.0,18.0,-999,-99.99,,,-99.99,,2013-04-10 10:13:00,
2013-04-10 05:23:00,70.0,-99.9,29.99,ESE,114,15.0,19.0,-999,-99.99,,,-99.99,,2013-04-10 10:23:00,
2013-04-10 05:33:00,70.0,-99.9,29.98,ESE,114,18.0,20.0,-999,-99.99,,,-99.99,,2013-04-10 10:33:00,
2013-04-10 05:43:00,70.0,-99.9,29.98,ESE,113,19.0,21.0,-999,-99.99,,,-99.99,,2013-04-10 10:43:00,
2013-04-10 05:53:00,70.0,-99.9,29.98,ESE,117,18.0,19.0,-999,-99.99,,,-99.99,,2013-04-10 10:53:00,
2013-04-10 06:03:00,70.0,-99.9,29.98,ESE,117,18.0,20.0,-999,-99.99,,,-99.99,,2013-04-10 11:03:00,
2013-04-10 06:12:00,70.0,-99.9,29.98,ESE,115,18.0,20.0,-999,-99.99,,,-99.99,,2013-04-10 11:12:00,
2013-04-10 06:22:00,70.0,-99.9,29.98,ESE,118,17.0,20.0,-999,-99.99,,,-99.99,,2013-04-10 11:22:00,
2013-04-10 06:32:00,70.0,-99.9,29.98,ESE,115,17.0,20.0,-999,-99.99,,,-99.99,,2013-04-10 11:32:00,
2013-04-10 06:42:00,70.0,-99.9,29.98,ESE,115,18.0,21.0,-999,-99.99,,,-99.99,,2013-04-10 11:42:00,
2013-04-10 06:53:00,70.0,-99.9,29.98,ESE,115,17.0,19.0,-999,-99.99,,,-99.99,,2013-04-10 11:53:00,
2013-04-10 07:03:00,70.0,-99.9,29.98,ESE,119,17.0,19.0,-999,-99.99,,,-99.99,,2013-04-10 12:03:00,
2013-04-10 07:12:00,70.0,-99.9,29.99,ESE,120,17.0,19.0,-999,-99.99,,,-99.99,,2013-04-10 12:12:00,
2013-04-10 07:23:00,70.0,-99.9,29.99,ESE,115,18.0,20.0,-999,-99.99,,,-99.99,,2013-04-10 12:23:00,
2013-04-10 07:33:00,70.0,-99.9,29.99,ESE,113,17.0,19.0,-999,-99.99,,,-99.99,,2013-04-10 12:33:00,
2013-04-10 07:43:00,70.0,-99.9,29.99,ESE,113,17.0,19.0,-999,-99.99,,,-99.99,,2013-04-10 12:43:00,
2013-04-10 07:52:00,70.0,-99.9,30.00,ESE,116,16.0,19.0,-999,-99.99,,,-99.99,,2013-04-10 12:52:00,
2013-04-10 08:02:00,71.0,-99.9,30.00,ESE,114,17.0,18.0,-999,-99.99,,,-99.99,,2013-04-10 13:02:00,
2013-04-10 08:12:00,71.0,-99.9,30.01,ESE,115,16.0,18.0,-999,-99.99,,,-99.99,,2013-04-10 13:12:00,
2013-04-10 08:23:00,71.0,-99.9,30.01,ESE,113,17.0,19.0,-999,-99.99,,,-99.99,,2013-04-10 13:23:00,
2013-04-10 08:33:00,71.0,-99.9,30.01,ESE,114,17.0,19.0,-999,-99.99,,,-99.99,,2013-04-10 13:33:00,
2013-04-10 08:43:00,71.0,-99.9,30.01,ESE,112,18.0,20.0,-999,-99.99,,,-99.99,,2013-04-10 13:43:00,
2013-04-10 08:53:00,71.0,-99.9,30.01,ESE,113,19.0,23.0,-999,-99.99,,,-99.99,,2013-04-10 13:53:00,
2013-04-10 09:02:00,71.0,-99.9,30.01,ESE,113,20.0,22.0,-999,-99.99,,,-99.99,,2013-04-10 14:02:00,
2013-04-10 09:13:00,71.0,-99.9,30.02,ESE,113,20.0,23.0,-999,-99.99,,,-99.99,,2013-04-10 14:13:00,
2013-04-10 09:22:00,71.0,-99.9,30.02,ESE,113,18.0,23.0,-999,-99.99,,,-99.99,,2013-04-10 14:22:00,
2013-04-10 09:33:00,71.0,-99.9,30.02,ESE,114,19.0,22.0,-999,-99.99,,,-99.99,,2013-04-10 14:33:00,
2013-04-10 09:42:00,71.0,-99.9,30.03,ESE,114,20.0,22.0,-999,-99.99,,,-99.99,,2013-04-10 14:42:00,
2013-04-10 09:52:00,71.0,-99.9,30.02,ESE,113,20.0,22.0,-999,-99.99,,,-99.99,,2013-04-10 14:52:00,
2013-04-10 10:03:00,71.0,-99.9,30.03,ESE,113,19.0,23.0,-999,-99.99,,,-99.99,,2013-04-10 15:03:00,
2013-04-10 10:12:00,71.0,-99.9,30.03,ESE,116,19.0,21.0,-999,-99.99,,,-99.99,,2013-04-10 15:12:00,
2013-04-10 10:23:00,71.0,-99.9,30.03,ESE,114,19.0,21.0,-999,-99.99,,,-99.99,,2013-04-10 15:23:00,
2013-04-10 10:33:00,71.0,-99.9,30.04,ESE,116,19.0,22.0,-999,-99.99,,,-99.99,,2013-04-10 15:33:00,
2013-04-10 10:43:00,71.0,-99.9,30.04,ESE,114,19.0,22.0,-999,-99.99,,,-99.99,,2013-04-10 15:43:00,
2013-04-10 10:53:00,71.0,-99.9,30.04,ESE,114,21.0,23.0,-999,-99.99,,,-99.99,,2013-04-10 15:53:00,
2013-04-10 11:03:00,71.0,-99.9,30.04,ESE,117,19.0,23.0,-999,-99.99,,,-99.99,,2013-04-10 16:03:00,
2013-04-10 11:13:00,71.0,-99.9,30.04,ESE,116,19.0,21.0,-999,-99.99,,,-99.99,,2013-04-10 16:13:00,
2013-04-10 11:23:00,71.0,-99.9,30.04,ESE,117,19.0,21.0,-999,-99.99,,,-99.99,,2013-04-10 16:23:00,
2013-04-10 11:33:00,71.0,-99.9,30.04,ESE,117,19.0,21.0,-999,-99.99,,,-99.99,,2013-04-10 16:33:00,
2013-04-10 11:43:00,71.0,-99.9,30.04,ESE,117,18.0,20.0,-999,-99.99,,,-99.99,,2013-04-10 16:43:00,
2013-04-10 11:53:00,71.0,-99.9,30.05,ESE,118,18.0,20.0,-999,-99.99,,,-99.99,,2013-04-10 16:53:00,
2013-04-10 12:03:00,71.0,-99.9,30.04,ESE,118,17.0,20.0,-999,-99.99,,,-99.99,,2013-04-10 17:03:00,
2013-04-10 12:13:00,71.0,-99.9,30.04,ESE,116,18.0,20.0,-999,-99.99,,,-99.99,,2013-04-10 17:13:00,
2013-04-10 12:23:00,71.0,-99.9,30.04,ESE,116,18.0,20.0,-999,-99.99,,,-99.99,,2013-04-10 17:23:00,
2013-04-10 12:34:00,71.0,-99.9,30.04,ESE,115,18.0,21.0,-999,-99.99,,,-99.99,,2013-04-10 17:34:00,
2013-04-10 12:43:00,71.0,-99.9,30.04,ESE,115,18.0,19.0,-999,-99.99,,,-99.99,,2013-04-10 17:43:00,
2013-04-10 12:53:00,71.0,-99.9,30.04,ESE,115,17.0,19.0,-999,-99.99,,,-99.99,,2013-04-10 17:53:00,
2013-04-10 13:03:00,71.0,-99.9,30.04,ESE,114,17.0,19.0,-999,-99.99,,,-99.99,,2013-04-10 18:03:00,
2013-04-10 13:12:00,72.0,-99.9,30.04,ESE,115,16.0,19.0,-999,-99.99,,,-99.99,,2013-04-10 18:12:00,
2013-04-10 13:23:00,72.0,-99.9,30.04,ESE,114,17.0,18.0,-999,-99.99,,,-99.99,,2013-04-10 18:23:00,
2013-04-10 13:33:00,72.0,-99.9,30.04,ESE,115,16.0,18.0,-999,-99.99,,,-99.99,,2013-04-10 18:33:00,
2013-04-10 13:43:00,72.0,-99.9,30.04,ESE,114,16.0,18.0,-999,-99.99,,,-99.99,,2013-04-10 18:43:00,
2013-04-10 13:53:00,72.0,-99.9,30.04,ESE,117,15.0,18.0,-999,-99.99,,,-99.99,,2013-04-10 18:53:00,
2013-04-10 14:03:00,72.0,-99.9,30.03,ESE,114,16.0,17.0,-999,-99.99,,,-99.99,,2013-04-10 19:03:00,
2013-04-10 14:13:00,72.0,-99.9,30.03,ESE,116,16.0,17.0,-999,-99.99,,,-99.99,,2013-04-10 19:13:00,
2013-04-10 14:22:00,72.0,-99.9,30.03,ESE,114,16.0,18.0,-999,-99.99,,,-99.99,,2013-04-10 19:22:00,
2013-04-10 14:33:00,73.0,-99.9,30.03,ESE,113,16.0,19.0,-999,-99.99,,,-99.99,,2013-04-10 19:33:00,
2013-04-10 14:42:00,73.0,-99.9,30.02,ESE,114,16.0,19.0,-999,-99.99,,,-99.99,,2013-04-10 19:42:00,
2013-04-10 14:53:00,73.0,-99.9,30.02,ESE,113,18.0,20.0,-999,-99.99,,,-99.99,,2013-04-10 19:53:00,
2013-04-10 15:03:00,73.0,-99.9,30.01,ESE,114,17.0,18.0,-999,-99.99,,,-99.99,,2013-04-10 20:03:00,
2013-04-10 15:12:00,73.0,-99.9,30.01,ESE,112,17.0,20.0,-999,-99.99,,,-99.99,,2013-04-10 20:12:00,
2013-04-10 15:23:00,73.0,-99.9,30.01,ESE,113,17.0,19.0,-999,-99.99,,,-99.99,,2013-04-10 20:23:00,
2013-04-10 15:33:00,73.0,-99.9,30.01,ESE,111,17.0,19.0,-999,-99.99,,,-99.99,,2013-04-10 20:33:00,
2013-04-10 15:43:00,73.0,-99.9,30.01,ESE,111,16.0,19.0,-999,-99.99,,,-99.99,,2013-04-10 20:43:00,
2013-04-10 15:53:00,73.0,-99.9,30.00,ESE,108,18.0,20.0,-999,-99.99,,,-99.99,,2013-04-10 20:53:00,
2013-04-10 16:03:00,73.0,-99.9,29.99,ESE,108,17.0,21.0,-999,-99.99,,,-99.99,,2013-04-10 21:03:00,
2013-04-10 16:13:00,73.0,-99.9,29.99,ESE,107,18.0,21.0,-999,-99.99,,,-99.99,,2013-04-10 21:13:00,
2013-04-10 16:22:00,73.0,-99.9,29.98,ESE,107,18.0,21.0,-999,-99.99,,,-99.99,,2013-04-10 21:22:00,
2013-04-10 16:33:00,73.0,-99.9,29.98,ESE,105,17.0,19.0,-999,-99.99,,,-99.99,,2013-04-10 21:33:00,
2013-04-10 16:43:00,73.0,-99.9,29.98,ESE,105,17.0,21.0,-999,-99.99,,,-99.99,,2013-04-10 21:43:00,
2013-04-10 16:53:00,73.0,-99.9,29.97,ESE,107,19.0,23.0,-999,-99.99,,,-99.99,,2013-04-10 21:53:00,
2013-04-10 17:03:00,73.0,-99.9,29.96,ESE,105,21.0,24.0,-999,-99.99,,,-99.99,,2013-04-10 22:03:00,
2013-04-10 17:13:00,73.0,-99.9,29.96,ESE,105,21.0,23.0,-999,-99.99,,,-99.99,,2013-04-10 22:13:00,
2013-04-10 17:23:00,73.0,-99.9,29.96,ESE,107,19.0,22.0,-999,-99.99,,,-99.99,,2013-04-10 22:23:00,
2013-04-10 17:34:00,72.0,-99.9,29.96,ESE,102,21.0,24.0,-999,-99.99,,,-99.99,,2013-04-10 22:34:00,
2013-04-10 17:43:00,72.0,-99.9,29.95,East,101,20.0,24.0,-999,-99.99,,,-99.99,,2013-04-10 22:43:00,
2013-04-10 17:53:00,72.0,-99.9,29.95,ESE,102,21.0,24.0,-999,-99.99,,,-99.99,,2013-04-10 22:53:00,
2013-04-10 18:03:00,72.0,-99.9,29.95,East,100,21.0,25.0,-999,-99.99,,,-99.99,,2013-04-10 23:03:00,
2013-04-10 18:12:00,72.0,-99.9,29.95,East,100,22.0,26.0,-999,-99.99,,,-99.99,,2013-04-10 23:12:00,
2013-04-10 18:22:00,72.0,-99.9,29.95,East,101,22.0,26.0,-999,-99.99,,,-99.99,,2013-04-10 23:22:00,
2013-04-10 18:33:00,71.0,-99.9,29.94,East,101,22.0,27.0,-999,-99.99,,,-99.99,,2013-04-10 23:33:00,
2013-04-10 18:43:00,71.0,-99.9,29.94,ESE,105,24.0,28.0,-999,-99.99,,,-99.99,,2013-04-10 23:43:00,
2013-04-10 18:53:00,71.0,-99.9,29.94,ESE,102,23.0,26.0,-999,-99.99,,,-99.99,,2013-04-10 23:53:00,
2013-04-10 19:02:00,71.0,-99.9,29.94,ESE,103,25.0,27.0,-999,-99.99,,,-99.99,,2013-04-11 00:02:00,
2013-04-10 19:13:00,71.0,-99.9,29.93,ESE,105,24.0,28.0,-999,-99.99,,,-99.99,,2013-04-11 00:13:00,
2013-04-10 19:23:00,71.0,-99.9,29.93,ESE,105,24.0,27.0,-999,-99.99,,,-99.99,,2013-04-11 00:23:00,
2013-04-10 19:32:00,71.0,-99.9,29.93,ESE,106,25.0,28.0,-999,-99.99,,,-99.99,,2013-04-11 00:32:00,
2013-04-10 19:43:00,71.0,-99.9,29.93,ESE,104,24.0,29.0,-999,-99.99,,,-99.99,,2013-04-11 00:43:00,
2013-04-10 19:53:00,71.0,-99.9,29.93,ESE,106,26.0,29.0,-999,-99.99,,,-99.99,,2013-04-11 00:53:00,
2013-04-10 20:02:00,71.0,-99.9,29.93,ESE,107,24.0,26.0,-999,-99.99,,,-99.99,,2013-04-11 01:02:00,
2013-04-10 20:12:00,71.0,-99.9,29.93,ESE,109,23.0,26.0,-999,-99.99,,,-99.99,,2013-04-11 01:12:00,
2013-04-10 20:22:00,71.0,-99.9,29.93,ESE,109,23.0,26.0,-999,-99.99,,,-99.99,,2013-04-11 01:22:00,
2013-04-10 20:33:00,71.0,-99.9,29.92,ESE,112,22.0,28.0,-999,-99.99,,,-99.99,,2013-04-11 01:33:00,
2013-04-10 20:42:00,71.0,-99.9,29.92,ESE,111,23.0,26.0,-999,-99.99,,,-99.99,,2013-04-11 01:42:00,
2013-04-10 20:52:00,71.0,-99.9,29.93,ESE,112,23.0,26.0,-999,-99.99,,,-99.99,,2013-04-11 01:52:00,
2013-04-10 21:03:00,71.0,-99.9,29.93,ESE,112,22.0,28.0,-999,-99.99,,,-99.99,,2013-04-11 02:03:00,
2013-04-10 21:13:00,71.0,-99.9,29.93,ESE,112,24.0,27.0,-999,-99.99,,,-99.99,,2013-04-11 02:13:00,
2013-04-10 21:22:00,71.0,-99.9,29.93,ESE,114,21.0,26.0,-999,-99.99,,,-99.99,,2013-04-11 02:22:00,
2013-04-10 21:32:00,71.0,-99.9,29.92,ESE,114,23.0,26.0,-999,-99.99,,,-99.99,,2013-04-11 02:32:00,
2013-04-10 21:42:00,71.0,-99.9,29.92,ESE,114,23.0,26.0,-999,-99.99,,,-99.99,,2013-04-11 02:42:00,
2013-04-10 21:53:00,71.0,-99.9,29.92,ESE,114,20.0,23.0,-999,-99.99,,,-99.99,,2013-04-11 02:53:00,
2013-04-10 22:02:00,71.0,-99.9,29.92,ESE,114,21.0,24.0,-999,-99.99,,,-99.99,,2013-04-11 03:02:00,
2013-04-10 22:12:00,71.0,-99.9,29.93,ESE,116,20.0,24.0,-999,-99.99,,,-99.99,,2013-04-11 03:12:00,
2013-04-10 22:22:00,71.0,-99.9,29.93,ESE,117,21.0,24.0,-999,-99.99,,,-99.99,,2013-04-11 03:22:00,
2013-04-10 22:33:00,71.0,-99.9,29.92,ESE,115,20.0,24.0,-999,-99.99,,,-99.99,,2013-04-11 03:33:00,
2013-04-10 22:43:00,71.0,-99.9,29.92,ESE,117,20.0,24.0,-999,-99.99,,,-99.99,,2013-04-11 03:43:00,
2013-04-10 22:54:00,71.0,-99.9,29.93,ESE,119,19.0,23.0,-999,-99.99,,,-99.99,,2013-04-11 03:54:00,
2013-04-10 23:03:00,71.0,-99.9,29.93,ESE,120,19.0,22.0,-999,-99.99,,,-99.99,,2013-04-11 04:03:00,
2013-04-10 23:13:00,71.0,-99.9,29.92,ESE,121,18.0,21.0,-999,-99.99,,,-99.99,,2013-04-11 04:13:00,
2013-04-10 23:23:00,71.0,-99.9,29.92,ESE,121,18.0,21.0,-999,-99.99,,,-99.99,,2013-04-11 04:23:00,
2013-04-10 23:33:00,71.0,-99.9,29.92,ESE,118,19.0,21.0,-999,-99.99,,,-99.99,,2013-04-11 04:33:00,
2013-04-10 23:43:00,71.0,-99.9,29.92,ESE,117,18.0,21.0,-999,-99.99,,,-99.99,,2013-04-11 04:43:00,
2013-04-10 23:53:00,71.0,-99.9,29.91,ESE,116,16.0,19.0,-999,-99.99,,,-99.99,,2013-04-11 04:53:00,